QPF
0.00 0.00 0.00 0.00 0.01 0.00 0.01 0.01 0.01 0.01 0.01 0.02 0.02 0.02 0.02 0.03 0.04 0.07 0.11 0.14 0.15 0.16 0.16 0.18 0.20 0.20 0.21 0.19 0.15 0.13 0.10 0.08 0.07 0.06 0.05 0.03 0.02 0.01 0.01 0.02 0.02 0.02 0.02
0.00 0.00 0.00 0.01 0.01 0.01 0.02 0.02 0.02 0.02 0.03 0.04 0.05 0.06 0.06 0.08 0.10 0.17 0.22 0.23 0.25 0.27 0.25 0.24 0.25 0.25 0.24 0.21 0.18 0.14 0.11 0.09 0.08 0.08 0.08 0.05 0.03 0.01 0.01 0.01 0.01 0.01 0.01
0.00 0.00 0.00 0.01 0.02 0.02 0.03 0.05 0.05 0.06 0.08 0.11 0.13 0.13 0.13 0.14 0.16 0.21 0.25 0.33 0.35 0.34 0.31 0.29 0.29 0.28 0.26 0.22 0.18 0.14 0.11 0.10 0.09 0.07 0.07 0.06 0.05 0.03 0.01 0.01 0.01 0.01 0.01
0.00 0.00 0.00 0.01 0.02 0.02 0.03 0.04 0.06 0.07 0.09 0.12 0.15 0.19 0.21 0.24 0.28 0.31 0.34 0.32 0.28 0.26 0.27 0.25 0.24 0.23 0.21 0.21 0.19 0.15 0.10 0.09 0.08 0.07 0.05 0.03 0.03 0.03 0.01 0.01 0.01 0.00 0.00
0.01 0.01 0.01 0.02 0.02 0.02 0.04 0.05 0.07 0.08 0.11 0.16 0.21 0.27 0.33 0.41 0.43 0.39 0.33 0.30 0.29 0.26 0.24 0.22 0.21 0.20 0.19 0.19 0.17 0.12 0.09 0.09 0.07 0.06 0.04 0.03 0.02 0.02 0.02 0.01 0.00 0.00 0.00
0.02 0.02 0.02 0.03 0.03 0.04 0.05 0.07 0.08 0.11 0.14 0.19 0.26 0.29 0.35 0.43 0.45 0.39 0.35 0.33 0.31 0.26 0.22 0.19 0.17 0.15 0.14 0.14 0.13 0.10 0.08 0.06 0.05 0.03 0.02 0.02 0.02 0.02 0.02 0.01 0.01 0.00 0.00
0.03 0.04 0.04 0.04 0.05 0.07 0.07 0.09 0.11 0.17 0.20 0.22 0.23 0.25 0.32 0.38 0.36 0.35 0.33 0.31 0.27 0.21 0.16 0.15 0.14 0.13 0.11 0.10 0.08 0.06 0.04 0.03 0.02 0.02 0.01 0.01 0.01 0.00 0.00 0.00 0.00 0.00 0.00
0.04 0.04 0.05 0.06 0.06 0.07 0.08 0.11 0.12 0.15 0.18 0.22 0.26 0.30 0.33 0.34 0.36 0.34 0.31 0.29 0.24 0.19 0.15 0.13 0.13 0.11 0.07 0.05 0.03 0.03 0.02 0.01 0.01 0.00 0.00 0.00 0.00 0.00 0.00 0.00 0.00 0.00 0.00
0.04 0.04 0.05 0.05 0.05 0.06 0.08 0.11 0.12 0.15 0.20 0.26 0.29 0.30 0.30 0.30 0.30 0.27 0.23 0.19 0.16 0.13 0.10 0.09 0.09 0.05 0.03 0.02 0.01 0.01 0.01 0.00 0.00 0.00 0.00 0.00 0.00 0.00 0.00 0.00 0.00 0.00 0.00
0.03 0.03 0.03 0.03 0.03 0.04 0.06 0.08 0.10 0.11 0.14 0.18 0.20 0.20 0.19 0.19 0.19 0.18 0.17 0.15 0.13 0.11 0.08 0.05 0.03 0.02 0.01 0.01 0.01 0.00 0.00 0.00 0.00 0.00 0.00 0.00 0.00 0.00 0.00 0.00 0.00 0.00 0.00
0.02 0.02 0.02 0.02 0.03 0.02 0.03 0.04 0.07 0.09 0.11 0.11 0.11 0.11 0.11 0.11 0.11 0.10 0.10 0.10 0.10 0.09 0.08 0.06 0.05 0.03 0.02 0.01 0.01 0.01 0.01 0.01 0.01 0.01 0.01 0.00 0.00 0.00 0.00 0.00 0.00 0.00 0.00
0.01 0.01 0.01 0.01 0.01 0.02 0.02 0.02 0.03 0.05 0.07 0.07 0.07 0.07 0.08 0.08 0.09 0.10 0.11 0.11 0.11 0.11 0.09 0.07 0.05 0.03 0.03 0.02 0.02 0.02 0.01 0.01 0.01 0.01 0.00 0.00 0.00 0.00 0.00 0.00 0.00 0.00 0.00
0.01 0.01 0.01 0.01 0.01 0.02 0.02 0.02 0.03 0.04 0.05 0.06 0.07 0.09 0.11 0.12 0.13 0.13 0.13 0.11 0.09 0.07 0.06 0.04 0.03 0.03 0.02 0.02 0.01 0.01 0.00 0.00 0.00 0.00 0.00 0.00 0.00 0.00 0.00 0.00 0.00 0.01 0.00
0.02 0.01 0.01 0.01 0.02 0.03 0.04 0.04 0.05 0.06 0.07 0.09 0.11 0.12 0.12 0.12 0.11 0.09 0.07 0.06 0.06 0.05 0.04 0.03 0.03 0.02 0.02 0.01 0.01 0.01 0.00 0.00 0.00 0.00 0.00 0.00 0.00 0.00 0.01 0.01 0.01 0.01 0.01
0.03 0.03 0.03 0.03 0.02 0.03 0.03 0.04 0.05 0.07 0.08 0.08 0.08 0.08 0.07 0.07 0.06 0.05 0.04 0.04 0.03 0.03 0.02 0.02 0.02 0.01 0.01 0.01 0.00 0.00 0.00 0.00 0.00 0.00 0.00 0.00 0.00 0.00 0.00 0.00 0.01 0.01 0.02
0.05 0.06 0.05 0.04 0.03 0.03 0.03 0.03 0.03 0.05 0.05 0.06 0.05 0.04 0.03 0.03 0.03 0.02 0.02 0.01 0.01 0.01 0.01 0.01 0.00 0.00 0.00 0.00 0.00 0.00 0.00 0.00 0.00 0.00 0.00 0.00 0.00 0.00 0.00 0.00 0.00 0.01 0.01
0.12 0.11 0.09 0.07 0.05 0.04 0.03 0.03 0.03 0.03 0.02 0.02 0.02 0.02 0.02 0.02 0.01 0.01 0.01 0.01 0.00 0.00 0.00 0.00 0.00 0.00 0.00 0.00 0.00 0.00 0.00 0.00 0.00 0.00 0.00 0.00 0.00 0.00 0.00 0.00 0.00 0.01 0.01
0.14 0.14 0.12 0.11 0.09 0.06 0.04 0.02 0.02 0.01 0.01 0.01 0.01 0.01 0.01 0.01 0.00 0.00 0.00 0.00 0.00 0.00 0.00 0.00 0.00 0.00 0.00 0.00 0.00 0.00 0.00 0.01 0.00 0.00 0.00 0.00 0.01 0.00 0.00 0.00 0.00 0.01 0.02
0.11 0.10 0.10 0.11 0.10 0.06 0.03 0.02 0.02 0.02 0.01 0.01 0.01 0.01 0.00 0.00 0.00 0.00 0.00 0.00 0.00 0.00 0.00 0.00 0.00 0.00 0.00 0.00 0.00 0.00 0.00 0.00 0.00 0.00 0.00 0.00 0.01 0.00 0.00 0.00 0.01 0.02 0.03
0.11 0.09 0.07 0.06 0.05 0.04 0.03 0.02 0.01 0.01 0.01 0.01 0.00 0.00 0.00 0.00 0.00 0.00 0.00 0.00 0.00 0.00 0.00 0.00 0.00 0.00 0.00 0.00 0.00 0.00 0.00 0.00 0.00 0.00 0.01 0.00 0.00 0.00 0.00 0.00 0.01 0.02 0.03
0.09 0.06 0.05 0.06 0.04 0.03 0.02 0.02 0.01 0.01 0.00 0.00 0.00 0.00 0.00 0.00 0.00 0.00 0.00 0.01 0.01 0.01 0.01 0.00 0.01 0.01 0.00 0.00 0.00 0.00 0.00 0.00 0.01 0.01 0.01 0.01 0.00 0.00 0.00 0.00 0.01 0.02 0.01
0.04 0.04 0.03 0.02 0.02 0.02 0.02 0.01 0.01 0.01 0.00 0.00 0.00 0.00 0.00 0.00 0.00 0.01 0.01 0.00 0.01 0.01 0.01 0.01 0.01 0.01 0.01 0.00 0.00 0.00 0.00 0.00 0.01 0.01 0.02 0.01 0.00 0.00 0.01 0.01 0.01 0.01 0.01
0.02 0.02 0.03 0.02 0.01 0.01 0.01 0.01 0.01 0.01 0.00 0.00 0.00 0.00 0.00 0.00 0.00 0.00 0.00 0.00 0.01 0.01 0.01 0.00 0.01 0.01 0.01 0.01 0.00 0.00 0.00 0.00 0.00 0.01 0.00 0.00 0.00 0.00 0.03 0.02 0.01 0.01 0.04
0.02 0.02 0.02 0.02 0.01 0.01 0.01 0.01 0.01 0.00 0.01 0.01 0.00 0.00 0.00 0.00 0.00 0.00 0.00 0.00 0.01 0.01 0.01 0.00 0.00 0.01 0.01 0.01 0.00 0.00 0.00 0.00 0.01 0.01 0.02 0.01 0.01 0.02 0.03 0.03 0.04 0.05 0.04
0.01 0.02 0.02 0.01 0.01 0.01 0.01 0.01 0.01 0.01 0.01 0.00 0.00 0.00 0.00 0.00 0.00 0.00 0.00 0.00 0.00 0.00 0.00 0.00 0.00 0.00 0.01 0.00 0.00 0.01 0.01 0.00 0.01 0.02 0.04 0.05 0.05 0.04 0.05 0.05 0.06 0.06 0.05
0.01 0.01 0.01 0.01 0.01 0.01 0.00 0.01 0.01 0.01 0.01 0.01 0.00 0.00 0.00 0.00 0.00 0.00 0.00 0.00 0.00 0.00 0.00 0.00 0.00 0.00 0.00 0.00 0.00 0.01 0.01 0.01 0.02 0.04 0.06 0.05 0.04 0.04 0.03 0.04 0.05 0.05 0.05
MSLP
1008.38 1008.71 1009.11 1009.57 1010.07 1010.61 1011.18 1011.75 1012.33 1012.90 1013.46 1013.98 1014.48 1014.94 1015.38 1015.78 1016.17 1016.53 1016.86 1017.17 1017.45 1017.70 1017.93 1018.14 1018.35 1018.56 1018.77 1019.01 1019.24 1019.48 1019.69 1019.87 1019.99 1020.06 1020.07 1020.04 1020.00 1019.96 1019.95 1019.99 1020.09 1020.23 1020.42
1009.17 1009.40 1009.67 1009.99 1010.34 1010.74 1011.17 1011.65 1012.15 1012.67 1013.20 1013.73 1014.26 1014.77 1015.26 1015.73 1016.17 1016.59 1016.98 1017.34 1017.66 1017.94 1018.19 1018.41 1018.60 1018.79 1018.97 1019.16 1019.35 1019.54 1019.73 1019.89 1020.02 1020.10 1020.14 1020.16 1020.15 1020.13 1020.14 1020.18 1020.26 1020.39 1020.55
1010.28 1010.37 1010.48 1010.62 1010.80 1011.01 1011.29 1011.62 1012.02 1012.47 1012.97 1013.49 1014.04 1014.59 1015.14 1015.68 1016.20 1016.69 1017.15 1017.57 1017.94 1018.26 1018.53 1018.75 1018.93 1019.09 1019.23 1019.36 1019.50 1019.64 1019.78 1019.92 1020.03 1020.13 1020.19 1020.23 1020.24 1020.25 1020.27 1020.30 1020.37 1020.47 1020.61
1011.60 1011.56 1011.51 1011.47 1011.46 1011.49 1011.59 1011.78 1012.06 1012.43 1012.88 1013.39 1013.96 1014.55 1015.15 1015.75 1016.34 1016.90 1017.43 1017.90 1018.33 1018.68 1018.98 1019.20 1019.37 1019.49 1019.59 1019.67 1019.75 1019.84 1019.93 1020.03 1020.13 1020.22 1020.29 1020.33 1020.36 1020.37 1020.38 1020.39 1020.43 1020.50 1020.61
1013.02 1012.89 1012.71 1012.52 1012.34 1012.21 1012.16 1012.21 1012.39 1012.68 1013.08 1013.57 1014.13 1014.75 1015.39 1016.04 1016.68 1017.29 1017.87 1018.39 1018.85 1019.23 1019.53 1019.76 1019.92 1020.02 1020.07 1020.11 1020.14 1020.17 1020.22 1020.29 1020.36 1020.43 1020.49 1020.53 1020.55 1020.54 1020.53 1020.51 1020.51 1020.53 1020.59
1014.44 1014.25 1014.00 1013.71 1013.42 1013.18 1013.02 1012.97 1013.05 1013.28 1013.63 1014.10 1014.66 1015.28 1015.94 1016.61 1017.28 1017.91 1018.51 1019.04 1019.51 1019.90 1020.20 1020.42 1020.56 1020.64 1020.67 1020.67 1020.65 1020.65 1020.66 1020.69 1020.73 1020.78 1020.82 1020.85 1020.85 1020.81 1020.76 1020.69 1020.63 1020.60 1020.60
1015.72 1015.56 1015.30 1014.99 1014.66 1014.36 1014.15 1014.04 1014.07 1014.25 1014.57 1015.02 1015.56 1016.16 1016.81 1017.48 1018.13 1018.75 1019.33 1019.85 1020.30 1020.67 1020.96 1021.16 1021.28 1021.34 1021.34 1021.31 1021.27 1021.23 1021.21 1021.21 1021.22 1021.25 1021.27 1021.27 1021.25 1021.18 1021.08 1020.97 1020.85 1020.74 1020.67
1016.81 1016.73 1016.55 1016.28 1015.98 1015.70 1015.48 1015.36 1015.38 1015.54 1015.83 1016.25 1016.76 1017.34 1017.95 1018.58 1019.19 1019.77 1020.30 1020.77 1021.18 1021.51 1021.77 1021.94 1022.04 1022.07 1022.05 1022.00 1021.93 1021.86 1021.81 1021.79 1021.78 1021.78 1021.78 1021.76 1021.71 1021.62 1021.49 1021.32 1021.15 1020.97 1020.83
1017.66 1017.73 1017.67 1017.51 1017.30 1017.09 1016.92 1016.83 1016.86 1017.01 1017.30 1017.69 1018.17 1018.70 1019.26 1019.83 1020.37 1020.88 1021.34 1021.75 1022.09 1022.38 1022.59 1022.73 1022.80 1022.81 1022.76 1022.69 1022.60 1022.51 1022.43 1022.37 1022.34 1022.32 1022.30 1022.27 1022.20 1022.09 1021.94 1021.74 1021.52 1021.29 1021.08
1018.29 1018.53 1018.63 1018.61 1018.53 1018.42 1018.33 1018.30 1018.37 1018.54 1018.81 1019.19 1019.63 1020.11 1020.61 1021.11 1021.57 1022.00 1022.39 1022.72 1023.00 1023.22 1023.39 1023.49 1023.53 1023.51 1023.45 1023.35 1023.24 1023.12 1023.01 1022.92 1022.86 1022.81 1022.78 1022.73 1022.66 1022.55 1022.39 1022.18 1021.93 1021.67 1021.40
1018.74 1019.14 1019.41 1019.55 1019.60 1019.60 1019.60 1019.65 1019.76 1019.96 1020.24 1020.59 1021.00 1021.44 1021.88 1022.30 1022.69 1023.05 1023.36 1023.62 1023.84 1024.01 1024.13 1024.20 1024.22 1024.18 1024.10 1023.97 1023.83 1023.67 1023.53 1023.40 1023.30 1023.23 1023.17 1023.12 1023.04 1022.94 1022.79 1022.59 1022.33 1022.05 1021.74
1019.09 1019.63 1020.03 1020.30 1020.47 1020.58 1020.67 1020.78 1020.95 1021.17 1021.46 1021.81 1022.19 1022.58 1022.97 1023.33 1023.66 1023.95 1024.20 1024.41 1024.57 1024.71 1024.80 1024.85 1024.84 1024.79 1024.69 1024.54 1024.37 1024.17 1023.98 1023.81 1023.67 1023.56 1023.48 1023.41 1023.33 1023.24 1023.10 1022.92 1022.67 1022.38 1022.05
1019.42 1020.05 1020.53 1020.89 1021.15 1021.34 1021.51 1021.68 1021.88 1022.13 1022.44 1022.78 1023.14 1023.50 1023.85 1024.17 1024.44 1024.68 1024.88 1025.04 1025.18 1025.29 1025.36 1025.39 1025.38 1025.32 1025.21 1025.04 1024.84 1024.61 1024.37 1024.16 1023.97 1023.81 1023.69 1023.60 1023.52 1023.43 1023.31 1023.14 1022.91 1022.61 1022.27
1019.79 1020.44 1020.96 1021.36 1021.67 1021.91 1022.13 1022.34 1022.58 1022.86 1023.17 1023.51 1023.86 1024.20 1024.51 1024.79 1025.02 1025.22 1025.38 1025.52 1025.63 1025.72 1025.78 1025.82 1025.81 1025.74 1025.62 1025.45 1025.22 1024.97 1024.69 1024.43 1024.19 1023.99 1023.84 1023.71 1023.61 1023.52 1023.40 1023.23 1023.01 1022.72 1022.36
1020.22 1020.85 1021.35 1021.75 1022.07 1022.34 1022.58 1022.83 1023.10 1023.40 1023.72 1024.05 1024.39 1024.70 1024.98 1025.23 1025.42 1025.58 1025.71 1025.82 1025.91 1025.99 1026.05 1026.08 1026.08 1026.02 1025.91 1025.73 1025.50 1025.23 1024.93 1024.63 1024.36 1024.11 1023.92 1023.76 1023.63 1023.51 1023.37 1023.20 1022.97 1022.68 1022.32
1020.74 1021.29 1021.74 1022.11 1022.42 1022.69 1022.94 1023.21 1023.50 1023.81 1024.13 1024.46 1024.78 1025.07 1025.32 1025.52 1025.68 1025.79 1025.88 1025.96 1026.02 1026.09 1026.15 1026.18 1026.19 1026.15 1026.05 1025.89 1025.67 1025.39 1025.09 1024.77 1024.47 1024.19 1023.95 1023.75 1023.59 1023.43 1023.27 1023.07 1022.83 1022.52 1022.14
1021.30 1021.76 1022.14 1022.46 1022.74 1023.00 1023.26 1023.53 1023.83 1024.15 1024.48 1024.80 1025.09 1025.35 1025.56 1025.71 1025.82 1025.88 1025.93 1025.96 1026.00 1026.04 1026.09 1026.13 1026.15 1026.13 1026.06 1025.92 1025.72 1025.47 1025.17 1024.85 1024.53 1024.23 1023.97 1023.73 1023.52 1023.32 1023.11 1022.88 1022.59 1022.25 1021.85
1021.88 1022.25 1022.55 1022.82 1023.06 1023.31 1023.57 1023.85 1024.15 1024.47 1024.79 1025.09 1025.36 1025.58 1025.73 1025.83 1025.88 1025.89 1025.89 1025.88 1025.88 1025.90 1025.94 1025.98 1026.01 1026.01 1025.97 1025.87 1025.71 1025.48 1025.21 1024.90 1024.58 1024.27 1023.97 1023.70 1023.44 1023.19 1022.94 1022.65 1022.32 1021.94 1021.51
1022.42 1022.71 1022.95 1023.17 1023.39 1023.62 1023.87 1024.15 1024.46 1024.77 1025.08 1025.36 1025.59 1025.76 1025.87 1025.91 1025.91 1025.86 1025.81 1025.76 1025.73 1025.74 1025.77 1025.81 1025.86 1025.89 1025.88 1025.81 1025.68 1025.49 1025.24 1024.95 1024.64 1024.32 1024.00 1023.69 1023.38 1023.08 1022.76 1022.42 1022.04 1021.61 1021.14
1022.90 1023.13 1023.32 1023.50 1023.70 1023.92 1024.17 1024.45 1024.74 1025.05 1025.34 1025.59 1025.78 1025.91 1025.97 1025.97 1025.92 1025.84 1025.75 1025.68 1025.64 1025.64 1025.67 1025.73 1025.79 1025.84 1025.85 1025.82 1025.72 1025.55 1025.32 1025.04 1024.72 1024.38 1024.03 1023.68 1023.33 1022.97 1022.59 1022.19 1021.76 1021.28 1020.78
1023.29 1023.48 1023.64 1023.80 1023.98 1024.19 1024.43 1024.70 1024.99 1025.28 1025.54 1025.76 1025.92 1026.01 1026.04 1026.01 1025.93 1025.84 1025.75 1025.68 1025.65 1025.66 1025.71 1025.79 1025.87 1025.94 1025.97 1025.95 1025.86 1025.69 1025.46 1025.16 1024.82 1024.45 1024.07 1023.67 1023.26 1022.85 1022.42 1021.96 1021.47 1020.96 1020.41
1023.60 1023.75 1023.90 1024.04 1024.21 1024.41 1024.65 1024.90 1025.18 1025.44 1025.67 1025.86 1026.00 1026.07 1026.08 1026.04 1025.97 1025.89 1025.83 1025.79 1025.80 1025.85 1025.93 1026.04 1026.14 1026.22 1026.25 1026.22 1026.11 1025.92 1025.65 1025.32 1024.93 1024.51 1024.07 1023.62 1023.15 1022.68 1022.20 1021.69 1021.16 1020.61 1020.04
1023.83 1023.97 1024.10 1024.24 1024.40 1024.59 1024.81 1025.05 1025.29 1025.53 1025.74 1025.90 1026.01 1026.07 1026.08 1026.05 1026.01 1025.98 1025.97 1026.00 1026.06 1026.17 1026.30 1026.44 1026.56 1026.64 1026.66 1026.60 1026.44 1026.20 1025.87 1025.46 1025.01 1024.51 1024.00 1023.48 1022.96 1022.44 1021.91 1021.37 1020.81 1020.23 1019.64
1024.00 1024.14 1024.26 1024.39 1024.54 1024.72 1024.92 1025.14 1025.36 1025.56 1025.74 1025.87 1025.97 1026.02 1026.04 1026.05 1026.06 1026.09 1026.15 1026.25 1026.39 1026.56 1026.75 1026.92 1027.05 1027.12 1027.11 1026.99 1026.77 1026.45 1026.03 1025.53 1024.99 1024.41 1023.83 1023.24 1022.66 1022.10 1021.54 1020.97 1020.40 1019.82 1019.23
1024.14 1024.28 1024.40 1024.52 1024.67 1024.83 1025.01 1025.20 1025.38 1025.55 1025.69 1025.80 1025.88 1025.93 1025.97 1026.02 1026.08 1026.17 1026.31 1026.49 1026.70 1026.94 1027.17 1027.37 1027.50 1027.55 1027.49 1027.31 1027.01 1026.60 1026.08 1025.49 1024.86 1024.20 1023.54 1022.90 1022.28 1021.69 1021.11 1020.55 1019.98 1019.41 1018.83
1024.28 1024.41 1024.52 1024.65 1024.78 1024.93 1025.09 1025.25 1025.40 1025.53 1025.63 1025.71 1025.77 1025.82 1025.88 1025.95 1026.05 1026.20 1026.40 1026.65 1026.92 1027.20 1027.46 1027.67 1027.80 1027.82 1027.71 1027.46 1027.08 1026.58 1025.98 1025.32 1024.61 1023.89 1023.18 1022.51 1021.87 1021.27 1020.70 1020.16 1019.61 1019.07 1018.52
Thickness
5775 5778 5778 5778 5776 5773 5769 5766 5762 5759 5755 5751 5747 5743 5740 5738 5735 5732 5728 5725 5722 5719 5716 5714 5711 5707 5705 5702 5698 5695 5691 5689 5688 5685 5683 5682 5681 5679 5677 5675 5673 5670 5666
5762 5765 5768 5771 5771 5769 5767 5764 5760 5758 5754 5751 5746 5742 5738 5734 5730 5726 5721 5717 5714 5711 5709 5706 5705 5701 5698 5694 5691 5688 5684 5682 5680 5679 5676 5673 5671 5669 5668 5666 5663 5661 5658
5750 5753 5757 5761 5764 5764 5763 5762 5758 5754 5751 5747 5741 5736 5730 5725 5721 5717 5713 5708 5705 5701 5699 5697 5696 5694 5691 5687 5683 5681 5679 5675 5671 5670 5668 5665 5663 5663 5659 5655 5653 5650 5648
5738 5742 5746 5750 5754 5757 5758 5757 5754 5750 5746 5741 5736 5731 5724 5717 5712 5708 5703 5699 5695 5692 5690 5689 5687 5685 5682 5678 5676 5673 5672 5669 5664 5660 5658 5657 5656 5653 5651 5647 5643 5639 5636
5724 5727 5731 5736 5742 5747 5750 5749 5747 5743 5740 5737 5732 5725 5719 5712 5705 5699 5694 5689 5684 5682 5680 5678 5677 5675 5673 5669 5666 5663 5661 5659 5656 5653 5650 5647 5644 5643 5640 5636 5633 5629 5625
5710 5713 5718 5723 5727 5733 5736 5738 5736 5732 5731 5728 5723 5717 5710 5703 5696 5691 5684 5678 5673 5671 5669 5666 5664 5662 5660 5657 5653 5650 5648 5645 5643 5641 5640 5638 5635 5632 5629 5625 5621 5618 5615
5696 5698 5702 5706 5711 5716 5719 5722 5722 5719 5717 5715 5710 5705 5700 5695 5689 5681 5674 5668 5663 5658 5654 5653 5651 5648 5646 5643 5640 5637 5634 5630 5628 5626 5624 5622 5619 5617 5615 5612 5609 5606 5602
5681 5684 5687 5690 5695 5699 5702 5705 5705 5703 5702 5700 5697 5691 5687 5681 5675 5669 5663 5657 5650 5646 5641 5639 5637 5635 5632 5629 5626 5623 5620 5616 5613 5610 5607 5605 5602 5599 5596 5594 5591 5590 5590
5669 5671 5673 5676 5679 5682 5684 5687 5687 5687 5685 5683 5679 5674 5669 5664 5659 5652 5647 5642 5635 5630 5626 5623 5621 5618 5616 5613 5611 5607 5604 5601 5598 5595 5592 5589 5586 5583 5579 5576 5574 5571 5572
5658 5659 5660 5662 5664 5666 5667 5669 5670 5668 5666 5664 5661 5656 5651 5647 5641 5635 5630 5623 5617 5614 5611 5607 5605 5601 5599 5596 5594 5591 5587 5585 5581 5577 5574 5571 5570 5566 5563 5560 5556 5552 5549
5647 5647 5647 5648 5649 5651 5652 5652 5651 5650 5647 5644 5641 5637 5633 5628 5623 5617 5611 5606 5601 5598 5594 5591 5588 5585 5582 5578 5576 5574 5571 5567 5563 5560 5557 5554 5549 5548 5545 5542 5538 5534 5529
5636 5636 5637 5637 5637 5636 5636 5635 5634 5632 5629 5625 5622 5619 5614 5610 5605 5599 5593 5589 5585 5582 5578 5575 5571 5568 5565 5561 5559 5556 5553 5550 5546 5543 5540 5537 5533 5528 5525 5521 5518 5514 5507
5626 5625 5624 5623 5622 5621 5620 5619 5617 5615 5612 5610 5606 5602 5597 5592 5587 5581 5577 5573 5569 5566 5562 5558 5555 5551 5548 5545 5542 5539 5536 5532 5528 5525 5521 5517 5513 5509 5506 5500 5498 5494 5491
5614 5612 5610 5608 5607 5606 5605 5603 5600 5598 5595 5593 5589 5584 5579 5574 5570 5565 5561 5557 5553 5550 5546 5542 5539 5536 5533 5529 5526 5522 5518 5514 5510 5506 5502 5498 5494 5490 5485 5483 5480 5477 5475
5600 5598 5595 5593 5592 5590 5588 5586 5583 5581 5578 5575 5571 5566 5562 5558 5554 5550 5546 5542 5539 5535 5531 5528 5525 5522 5518 5512 5508 5505 5502 5497 5494 5489 5484 5480 5474 5469 5465 5465 5464 5462 5462
5587 5584 5581 5578 5576 5574 5572 5570 5567 5564 5562 5560 5556 5552 5548 5544 5540 5536 5531 5528 5525 5522 5518 5515 5512 5508 5502 5493 5488 5485 5485 5482 5478 5474 5469 5467 5464 5458 5453 5451 5448 5446 5447
5574 5571 5567 5563 5561 5559 5557 5555 5553 5551 5548 5545 5542 5539 5536 5532 5528 5524 5520 5516 5513 5509 5506 5502 5498 5494 5485 5477 5472 5469 5468 5468 5464 5459 5456 5454 5452 5447 5446 5444 5442 5442 5441
5563 5559 5555 5551 5548 5546 5544 5542 5541 5538 5536 5533 5531 5528 5524 5521 5516 5512 5508 5504 5501 5498 5494 5490 5486 5481 5472 5463 5459 5456 5456 5456 5451 5448 5444 5441 5439 5438 5432 5434 5438 5440 5442
5553 5548 5544 5541 5538 5535 5533 5532 5530 5527 5526 5523 5520 5517 5513 5510 5506 5502 5498 5494 5490 5487 5484 5479 5473 5468 5460 5451 5446 5442 5445 5445 5442 5439 5436 5432 5431 5425 5423 5426 5433 5438 5439
5541 5538 5535 5532 5529 5526 5524 5523 5521 5518 5516 5513 5510 5507 5504 5500 5497 5492 5488 5485 5481 5477 5474 5468 5462 5457 5450 5440 5435 5430 5435 5436 5434 5433 5431 5428 5424 5421 5421 5424 5431 5434 5437
5532 5530 5527 5524 5521 5518 5517 5515 5513 5510 5507 5504 5501 5498 5494 5491 5487 5483 5480 5476 5473 5468 5464 5459 5454 5448 5440 5433 5426 5422 5424 5426 5427 5428 5429 5428 5422 5422 5422 5423 5429 5431 5431
5525 5523 5520 5516 5513 5511 5510 5507 5504 5501 5499 5496 5493 5490 5486 5484 5481 5477 5473 5469 5465 5463 5458 5453 5448 5443 5435 5427 5423 5419 5417 5415 5420 5424 5426 5426 5423 5424 5426 5429 5431 5431 5432
5519 5517 5514 5511 5508 5505 5503 5500 5496 5494 5491 5489 5486 5483 5480 5477 5474 5472 5469 5466 5461 5459 5455 5450 5445 5439 5433 5428 5421 5419 5418 5418 5420 5424 5424 5424 5426 5428 5433 5434 5434 5435 5440
5515 5512 5510 5507 5503 5499 5496 5493 5490 5487 5485 5483 5480 5478 5476 5473 5470 5467 5465 5462 5458 5453 5449 5445 5441 5436 5432 5427 5423 5421 5423 5423 5425 5427 5429 5429 5432 5434 5435 5438 5441 5443 5445
5511 5508 5505 5501 5497 5493 5490 5487 5484 5482 5480 5478 5476 5474 5473 5470 5465 5462 5456 5453 5446 5440 5438 5437 5435 5432 5429 5421 5415 5415 5420 5421 5424 5425 5432 5436 5439 5442 5444 5445 5446 5447 5449
5507 5504 5500 5496 5492 5489 5486 5483 5480 5477 5475 5474 5472 5472 5470 5466 5464 5460 5453 5440 5437 5431 5428 5425 5423 5425 5420 5418 5417 5417 5419 5421 5424 5428 5436 5440 5442 5443 5445 5447 5449 5450 5451